Orbital Elements at Epoch 2459200.5 (2020-Dec-17.0) TDB
Reference: JPL 23 (heliocentric ecliptic J2000)
Element | Value | Uncertainty (1-sigma) | Units |
e | .1894849152925643 | 3.4772e-08 | |
a | 2.281623020284418 | 6.7241e-09 | au |
q | 1.84928987555626 | 7.9551e-08 | au |
i | 2.707849160952919 | 4.322e-06 | deg |
node | 156.9846795121371 | 8.3736e-05 | deg |
peri | 156.8808484898424 | 8.4484e-05 | deg |
M | 120.3169476646734 | 1.1979e-05 | deg |
tp | 2458779.784447494076 (2019-Oct-23.28444749) | 4.1307e-05 | TDB |
period | 1258.82181888664 3.45 | 5.5647e-06 1.524e-08 | d yr |
n | .2859816970112583 | 1.2642e-09 | deg/d |
Q | 2.713956165012576 | 7.9982e-09 | au |
|
| | Orbit Determination Parameters
Additional Information
|